Location: Bottens
(46.6171°N, 6.6605°E)
Time: 20:30:53
(UTC+00:00)

Cosmos 1570 Rocket - Pass Details

Date: 20 June 2021
Orbit: 763 x 788 km, 74.1° (Epoch: 23 July)

Event Time Altitude Azimuth Distance (km) Brightness Sun altitude
Exits shadow 01:01:40 27° 174° (S) 1,453 4.9 -17.3°
Maximum altitude 01:04:24 57° 106° (ESE) 898 4.3 -17.1°
Drops below altitude 10° 01:09:31 10° 29° (NNE) 2,308 7.8 -16.8°
Sets 01:11:55 0° 26° (NNE) 3,238 9.1 -16.6°
